Location: Unspecified
(0.0000°N, 0.0000°E)
Time: 01:22:22
(UTC+00:00)

Courier 1B Rocket - Pass Details

Date: 23 November 2019
Orbit: 920 x 1202 km, 28.2° (Epoch: 10 December)

Event Time Altitude Azimuth Distance (km) Brightness Sun altitude
Rises 08:23:34 0° 231° (SW) 3,584 7.8 36.5°
Reaches altitude 10° 08:26:17 10° 225° (SW) 2,621 7.2 37.1°
Maximum altitude 08:32:20 51° 150° (SSE) 1,135 6.8 38.4°
Drops below altitude 10° 08:38:24 10° 75° (ENE) 2,622 8.0 39.8°
Sets 08:41:07 0° 70° (ENE) 3,586 8.4 40.4°
